Hyannis, MA

6:42 PM EDT on May 23, 2018 (GMT -0400)
Barnstable Municipal-Boardman-Polando Field

Weather History for KHYA - September, 2012

Change the Weather History Date:

Monday, September 17, 2012

  Actual Average Record
Temperature  
Mean Temperature 56 °F -  
Max Temperature 71 °F 70 °F 82 °F (1946)
Min Temperature 42 °F 53 °F 32 °F (1960)
Degree Days  
Heating Degree Days 9    
Growing Degree Days 6 (Base 50)    
Moisture  
Dew Point 48 °F    
Average Humidity 73    
Maximum Humidity 97    
Minimum Humidity 42    
Precipitation  
Precipitation 0.00 in - - ()
Sea Level Pressure  
Sea Level Pressure 30.07 in    
Wind  
Wind Speed 2 mph (SW)    
Max Wind Speed 14 mph    
Max Gust Speed -    
Visibility 10 miles    
Events      
Averages and records for this station are not official NWS values.
T = Trace of Precipitation, MM = Missing Value Source: NWS Daily Summary

Daily Weather History Graph

Daily Weather History Graph

Search for Another Location

Airport or City:

Astronomy

Sep. 17, 2012 Rise Set
Actual Time 6:23 AM EDT 6:46 PM EDT
Civil Twilight 5:56 AM EDT 7:14 PM EDT
Nautical Twilight 5:23 AM EDT 7:46 PM EDT
Astronomical Twilight 4:49 AM EDT 8:20 PM EDT
Moon 8:11 AM EDT (9/17) 7:23 PM EDT (9/17)
Length of Visible Light 13h 17m
Length of Day
12h 22m
Waxing Crescent, 3% of the Moon is Illuminated
Sep 17
Waxing Crescent
Sep 22
First Quarter
Sep 29
Full
Oct 8
Last Quarter
Oct 15
New

Hourly Weather History & Observations

Time (EDT) Temp. Dew Point Humidity Pressure Visibility Wind Dir Wind Speed Gust Speed Precip Events Conditions
12:56 AM 46.9 °F 45.0 °F 93% 30.04 in 10.0 mi Calm Calm - N/A   Clear
1:56 AM 46.0 °F 44.1 °F 93% 30.04 in 10.0 mi Calm Calm - N/A   Clear
2:56 AM 45.0 °F 44.1 °F 97% 30.04 in 10.0 mi Calm Calm - N/A   Clear
3:56 AM 44.1 °F 42.1 °F 93% 30.05 in 10.0 mi Calm Calm - N/A   Clear
4:56 AM 43.0 °F 41.0 °F 93% 30.05 in 10.0 mi Calm Calm - N/A   Clear
5:56 AM 42.1 °F 41.0 °F 96% 30.06 in 10.0 mi Calm Calm - N/A   Clear
6:56 AM 44.1 °F 41.0 °F 89% 30.08 in 10.0 mi Calm Calm - N/A   Clear
7:56 AM 54.0 °F 48.9 °F 83% 30.09 in 10.0 mi Calm Calm - N/A   Clear
8:56 AM 63.0 °F 50.0 °F 63% 30.09 in 10.0 mi Calm Calm - N/A   Clear
9:56 AM 66.0 °F 51.1 °F 59% 30.10 in 10.0 mi NNW 3.5 mph - N/A   Clear
10:56 AM 68.0 °F 46.9 °F 47% 30.09 in 10.0 mi WSW 4.6 mph - N/A   Clear
11:56 AM 70.0 °F 52.0 °F 53% 30.08 in 10.0 mi SSW 9.2 mph - N/A   Clear
12:56 PM 70.0 °F 50.0 °F 49% 30.08 in 10.0 mi SW 13.8 mph - N/A   Clear
1:56 PM 69.1 °F 48.9 °F 49% 30.07 in 10.0 mi SW 11.5 mph - N/A   Clear
2:56 PM 70.0 °F 50.0 °F 49% 30.06 in 10.0 mi SW 10.4 mph - N/A   Clear
3:56 PM 70.0 °F 48.9 °F 47% 30.05 in 9.0 mi SW 9.2 mph - N/A   Clear
4:56 PM 69.1 °F 45.0 °F 42% 30.04 in 10.0 mi SSW 5.8 mph - N/A   Clear
5:56 PM 66.9 °F 54.0 °F 63% 30.05 in 10.0 mi SW 8.1 mph - N/A   Clear
6:56 PM 62.1 °F 53.1 °F 72% 30.05 in 10.0 mi WSW 3.5 mph - N/A   Clear
7:56 PM 57.9 °F 53.1 °F 84% 30.07 in 10.0 mi Calm Calm - N/A   Clear
8:56 PM 55.0 °F 53.1 °F 93% 30.09 in 10.0 mi Calm Calm - N/A   Clear
9:56 PM 55.0 °F 52.0 °F 89% 30.08 in 10.0 mi Calm Calm - N/A   Clear
10:56 PM 64.0 °F 55.0 °F 73% 30.09 in 10.0 mi SSW 8.1 mph - N/A   Clear